TimeAKDT,TemperatureF,Dew PointF,Humidity,Sea Level PressureIn,VisibilityMPH,Wind Direction,Wind SpeedMPH,Gust SpeedMPH,PrecipitationIn,Events,Conditions,WindDirDegrees,DateUTC
12:54 AM,57.9,51.1,78,30.04,10.0,East,6.9,-,N/A,,Overcast,80,2013-07-13 08:54:00
1:54 AM,55.9,51.1,84,30.06,10.0,East,4.6,-,N/A,,Overcast,100,2013-07-13 09:54:00
2:54 AM,55.9,51.1,84,30.06,10.0,ESE,4.6,-,N/A,,Mostly Cloudy,110,2013-07-13 10:54:00
3:54 AM,55.9,51.1,84,30.06,10.0,East,4.6,-,N/A,,Overcast,100,2013-07-13 11:54:00
4:54 AM,55.9,51.1,84,30.07,10.0,ESE,8.1,-,N/A,,Overcast,120,2013-07-13 12:54:00
5:07 AM,55.4,51.8,88,30.07,10.0,ESE,6.9,-,N/A,,Overcast,110,2013-07-13 13:07:00
5:54 AM,55.9,51.1,84,30.08,10.0,East,4.6,-,N/A,,Overcast,100,2013-07-13 13:54:00
6:54 AM,55.0,52.0,89,30.09,10.0,ESE,6.9,-,0.00,,Overcast,120,2013-07-13 14:54:00
7:26 AM,55.4,51.8,88,30.09,10.0,ESE,5.8,-,0.00,,Mostly Cloudy,110,2013-07-13 15:26:00
7:54 AM,54.0,52.0,93,30.10,10.0,East,3.5,-,0.00,Rain,Light Rain,90,2013-07-13 15:54:00
8:54 AM,57.0,52.0,83,30.11,10.0,ESE,3.5,-,0.00,,Clear,110,2013-07-13 16:54:00
9:54 AM,57.0,52.0,83,30.12,10.0,Calm,Calm,-,N/A,,Partly Cloudy,0,2013-07-13 17:54:00
10:54 AM,59.0,53.1,81,30.13,10.0,South,4.6,-,N/A,,Mostly Cloudy,170,2013-07-13 18:54:00
11:54 AM,63.0,54.0,72,30.15,10.0,SE,10.4,-,0.00,,Scattered Clouds,130,2013-07-13 19:54:00
12:54 PM,64.9,52.0,63,30.14,10.0,SE,5.8,-,N/A,,Clear,130,2013-07-13 20:54:00
1:54 PM,63.0,55.0,75,30.14,10.0,SE,11.5,-,N/A,,Clear,130,2013-07-13 21:54:00
2:54 PM,64.0,53.1,67,30.15,10.0,ESE,8.1,-,N/A,,Clear,110,2013-07-13 22:54:00
3:54 PM,63.0,52.0,67,30.15,10.0,East,8.1,-,N/A,,Clear,100,2013-07-13 23:54:00
4:54 PM,64.0,48.0,56,30.15,10.0,ESE,8.1,17.3,N/A,,Clear,110,2013-07-14 00:54:00
5:54 PM,64.9,45.0,48,30.15,10.0,ESE,11.5,-,N/A,,Clear,120,2013-07-14 01:54:00
6:54 PM,64.0,46.0,52,30.16,10.0,East,8.1,-,N/A,,Clear,100,2013-07-14 02:54:00
7:54 PM,63.0,46.0,54,30.17,10.0,ESE,6.9,-,N/A,,Clear,110,2013-07-14 03:54:00
8:54 PM,60.1,46.0,60,30.17,10.0,East,4.6,-,N/A,,Clear,100,2013-07-14 04:54:00
9:54 PM,57.0,46.0,67,30.19,10.0,East,5.8,-,N/A,,Clear,90,2013-07-14 05:54:00
10:54 PM,55.0,45.0,69,30.22,10.0,East,5.8,-,N/A,,Clear,90,2013-07-14 06:54:00
11:54 PM,53.1,46.0,77,30.24,10.0,East,6.9,-,N/A,,Clear,100,2013-07-14 07:54:00